Orbital Elements at Epoch 2459200.5 (2020-Dec-17.0) TDB
Reference: JPL 29 (heliocentric ecliptic J2000)
Element | Value | Uncertainty (1-sigma) | Units |
e | .08404158964838424 | 4.3895e-08 | |
a | 2.851736700202239 | 1.2272e-08 | au |
q | 2.612072214658605 | 1.2196e-07 | au |
i | 2.915232789833075 | 4.2847e-06 | deg |
node | 66.3511072330634 | 7.3545e-05 | deg |
peri | 284.0457240586272 | 7.7235e-05 | deg |
M | 54.79838285682501 | 2.3317e-05 | deg |
tp | 2458932.751032001915 (2020-Mar-24.25103200) | 0.00011388 | TDB |
period | 1758.986733808429 4.82 | 1.1354e-05 3.109e-08 | d yr |
n | .2046632831735771 | 1.3211e-09 | deg/d |
Q | 3.091401185745873 | 1.3303e-08 | au |
|
| | Orbit Determination Parameters
Additional Information
|